Regional Weather Roundup
Issued by NWS Cleveland, OH

Home | Current Version | Previous Version | Text Only | Print | Product List | Glossary Off
Versions: 1 2 3 4 5 6 7 8 9 10 11 12 13 14 15 16 17 18 19 20 21 22 23 24 25 26 27 28 29 30 31 32 33 34 35 36 37 38 39 40 41 42 43 44 45 46 47 48 49 50

000
ASUS41 KCLE 060702
RWRCLE
OHIO REGIONAL WEATHER ROUNDUP
NATIONAL WEATHER SERVICE CLEVELAND, OH
300 AM EDT MON JUL 06 2015

NOTE: "FAIR" INDICATES FEW OR NO CLOUDS BELOW 12,000 FEET WITH NO
SIGNIFICANT WEATHER AND/OR OBSTRUCTIONS TO VISIBILITY.

OHZ001>008-015>018-024>027-034-035-043-044-060800-
   NORTHWEST OHIO

CITY           SKY/WX    TMP DP  RH WIND       PRES   REMARKS
DEFIANCE       CLEAR     63  59  87 CALM      30.06S FOG
FINDLAY        PTCLDY    64  61  90 E5        30.05F
TOLEDO EXPRESS CLEAR     57  56  96 CALM      30.05F FOG
TOLEDO EXEC    CLEAR     64  59  83 E3        30.06F
LIMA           PTCLDY    61  59  93 CALM      30.06F
$$

OHZ009>014-019>023-028>033-038-089-060800-
   NORTHEAST OHIO

CITY           SKY/WX    TMP DP  RH WIND       PRES   REMARKS
CLE-HOPKINS    MOCLDY    62  59  90 SE3       30.09F
CLE-LAKEFRONT  PTCLDY    68  61  78 CALM      30.05F
CUY CO. ARPT   NOT AVBL
LORAIN-ELYRIA  PTCLDY    60  59  96 S3        30.07F FOG
ASHTABULA      MOCLDY    61  60  97 CALM      30.09S FOG
AKRON-CANTON   MOCLDY    66  58  75 N6        30.07S
WOOSTER        PTCLDY    61  59  93 CALM      30.07F FOG
MANSFIELD      CLEAR     61  60  97 CALM      30.07F
YOUNGSTOWN     CLOUDY    64  59  83 E7        30.08S
$$

OHZ042-051>053-060>062-070>072-077>081-060800-
  SOUTHWEST OHIO

CITY           SKY/WX    TMP DP  RH WIND       PRES   REMARKS
CINC-COVINGTON PTCLDY    64  61  90 W3        30.05F
CINC-LUNKEN    PTCLDY    64  64 100 CALM      30.05F
HAMILTON       PTCLDY    62  61  96 CALM      30.06F FOG
DAYTON         PTCLDY    65  62  90 NW3       30.06F
WRIGHT-PAT AFB PTCLDY    63  63  99 SE2       30.05F
DAYTON GENERAL CLEAR     63  61  93 CALM      30.05F
WILMINGTON     CLEAR     65  61  87 CALM      30.05F
$$

OHZ036-037-039>041-045>050-054>059-063>069-073>076-082>088-060800-
  CENTRAL AND SOUTHEAST OHIO

CITY           SKY/WX    TMP DP  RH WIND       PRES   REMARKS
COLUMBUS       MOCLDY    65  62  90 CALM      30.04F
OSU AIRPORT    CLEAR     65  61  87 CALM      30.05F
BOLTON FIELD   NOT AVBL
RICKENBACK AFB NOT AVBL
NEWARK         MOCLDY    64  62  93 CALM      30.04F
MARION         PTCLDY    63  59  87 N5        30.06F
LANCASTER      PTCLDY    63  61  93 CALM      30.04F FOG
ZANESVILLE     NOT AVBL
NEW PHILLY     MOCLDY    65  62  90 CALM      30.05F
$$



USA.gov is the U.S. government's official web portal to all federal, state and local government web resources and services.